Location: Torch Lake Township
(45.0753°N, 85.3586°W)
Time: 16:30:03
(UTC-04:00)

Amateur Radio Satellites - All Passes

Search period start: 28 July 2014 16:00
Search period end: 29 July 2014 16:00
Location: Torch Lake Township, 45.0753°N, 85.3586°W

Satellite Date Start Highest point End Downlink Frequencies (MHz)
Time Altitude Azimuth
Gurwin Techsat 1B 28 Jul 16:05:55 16:11:07 56° 260° (W) 16:16:22 435.225 FM
UOSAT-12 28 Jul 16:10:17 16:14:54 76° 307° (NW) 16:19:38 437.025 FM, 437.400 FM
Saudisat 1A 28 Jul 16:19:04 16:22:55 28° 42° (NE) 16:26:44 436.775 MHz
AO-Echo 28 Jul 16:43:56 16:45:52 12° 274° (W) 16:47:49 ?
AO-7 28 Jul 16:44:32 16:52:51 75° 68° (ENE) 17:01:12 29.400 - 29.500 MHz
KITSAT 1 28 Jul 16:51:34 16:59:33 66° 243° (WSW) 17:07:29 435.175 FM
Uosat F 28 Jul 16:57:50 17:02:53 82° 74° (ENE) 17:07:57 435.120 FM
TMSAT-1 28 Jul 17:24:07 17:27:28 17° 270° (W) 17:30:51 436.925 FM
JAS-1B 28 Jul 17:35:19 17:41:39 21° 277° (W) 17:48:28 435.800 - 435.900 CW/SSB
OPAL 28 Jul 17:45:32 17:50:34 59° 104° (ESE) 17:55:37 ?
UOSAT-12 28 Jul 17:52:52 17:55:52 17° 328° (NNW) 17:58:53 437.025 FM, 437.400 FM
Saudisat 1A 28 Jul 17:58:28 18:02:38 42° 241° (WSW) 18:06:46 436.775 MHz
RS-15 28 Jul 18:03:20 18:12:46 31° 340° (NNW) 18:22:14 29.354 - 29.394 USB, Beacon 29.352 USB
Hamsat 28 Jul 18:06:26 18:10:04 29° 68° (ENE) 18:13:43 145.90 MHz
JAS-2 28 Jul 18:08:00 18:15:07 42° 65° (ENE) 18:21:46 435.800 - 435.900 CW/SSB, 435.910 FM
AO-7 28 Jul 18:39:39 18:46:22 27° 267° (W) 18:53:08 29.400 - 29.500 MHz
Uosat F 28 Jul 18:40:03 18:42:18 13° 272° (W) 18:44:33 435.120 FM
KITSAT 1 28 Jul 18:50:15 18:53:22 13° 263° (W) 18:56:30 435.175 FM
SO-67 28 Jul 18:54:44 18:56:24 13° 64° (ENE) 18:58:05 435.3500 MHz FM
OPAL 28 Jul 19:25:20 19:29:02 21° 301° (WNW) 19:32:46 ?
Hamsat 28 Jul 19:42:30 19:46:01 26° 266° (W) 19:49:35 145.90 MHz
JAS-2 28 Jul 19:52:33 20:00:01 48° 262° (W) 20:07:03 435.800 - 435.900 CW/SSB, 435.910 FM
HO-68 28 Jul 19:57:07 20:01:50 19° 51° (NE) 20:06:33 435.675 MHz FM
STRAND 1 28 Jul 20:08:03 20:12:56 43° 99° (E) 20:17:46 ?
RS-15 28 Jul 20:20:18 20:29:31 29° 15° (NNE) 20:38:51 29.354 - 29.394 USB, Beacon 29.352 USB
SO-67 28 Jul 20:25:48 20:29:07 43° 261° (W) 20:32:28 435.3500 MHz FM
SO-50 28 Jul 20:55:49 20:59:42 24° 39° (NE) 21:03:37 436.795 FM
Oscar 11 28 Jul 21:07:27 21:08:55 12° 59° (ENE) 21:10:23 145.825 FM, Beacon 2401.500 USB
MaSat-1 28 Jul 21:08:35 21:09:41 11° 97° (E) 21:10:48 437.345 MHz
HO-68 28 Jul 21:41:21 21:48:32 82° 71° (ENE) 21:55:43 435.675 MHz FM
STRAND 1 28 Jul 21:47:42 21:51:54 27° 296° (WNW) 21:56:06 ?
UKube-1 28 Jul 21:54:35 21:58:55 67° 73° (ENE) 22:03:16 145.840 MHz, 145.915 MHz
RS-15 28 Jul 22:33:46 22:44:40 61° 46° (NE) 22:55:52 29.354 - 29.394 USB, Beacon 29.352 USB
SO-50 28 Jul 22:35:56 22:40:38 61° 239° (WSW) 22:45:22 436.795 FM
Oscar 11 28 Jul 22:40:09 22:44:27 83° 257° (WSW) 22:48:48 145.825 FM, Beacon 2401.500 USB
MaSat-1 28 Jul 22:41:53 22:46:01 83° 298° (WNW) 22:50:52 437.345 MHz
UOSAT-12 28 Jul 22:58:26 23:02:31 28° 41° (NE) 23:06:33 437.025 FM, 437.400 FM
FUNcube-1 28 Jul 23:00:54 23:05:10 62° 74° (ENE) 23:09:21 145.950 - 145.970 MHz USB
HO-68 28 Jul 23:32:00 23:37:01 20° 270° (W) 23:42:04 435.675 MHz FM
UKube-1 28 Jul 23:33:38 23:35:35 13° 270° (W) 23:37:32 145.840 MHz, 145.915 MHz
MaSat-1 29 Jul 00:21:41 00:24:18 15° 321° (NW) 00:27:04 437.345 MHz
ISS 29 Jul 00:29:55 00:32:55 31° 140° (SE) 00:35:56 145.800 FM
UOSAT-12 29 Jul 00:38:19 00:42:55 50° 240° (WSW) 00:47:25 437.025 FM, 437.400 FM
FUNcube-1 29 Jul 00:39:55 00:41:57 13° 270° (W) 00:43:59 145.950 - 145.970 MHz USB
RS-15 29 Jul 00:46:31 00:56:43 46° 249° (WSW) 01:07:17 29.354 - 29.394 USB, Beacon 29.352 USB
Sapphire 29 Jul 00:46:39 00:50:16 19° 105° (ESE) 00:53:54 437.095 MHz 1200 baud AX-25 AFSK
PCSat 29 Jul 01:18:28 01:23:23 37° 112° (ESE) 01:28:19 145.825 MHz
ISS 29 Jul 02:06:17 02:09:33 47° 338° (NNW) 02:12:49 145.800 FM
Sapphire 29 Jul 02:27:43 02:33:06 71° 304° (NW) 02:38:32 437.095 MHz 1200 baud AX-25 AFSK
AO-40 29 Jul 02:31:13 04:07:38 15° 120° (ESE) 05:05:57 Beacon 2401.320
Oscar 19 29 Jul 02:49:41 02:54:30 38° 97° (E) 02:59:17 437.125 CW, 437.150 USB
PCSat 29 Jul 03:01:43 03:06:46 39° 311° (NW) 03:11:51 145.825 MHz
AO-Echo 29 Jul 03:07:12 03:11:29 27° 93° (E) 03:15:37 ?
Oscar 16 29 Jul 03:17:51 03:23:02 71° 103° (ESE) 03:28:11 437.025 USB, Beacon 2401.1428
OPAL 29 Jul 03:25:50 03:29:17 19° 58° (ENE) 03:32:45 ?
JAS-1B 29 Jul 03:25:53 03:34:16 35° 90° (E) 03:41:35 435.800 - 435.900 CW/SSB
ITAMSAT 1 29 Jul 03:38:42 03:43:44 49° 100° (E) 03:48:42 435.822 SSB
ISS 29 Jul 03:43:54 03:46:47 26° 358° (N) 03:49:40 145.800 FM
Oscar 10/S400 29 Jul 03:44:36 04:38:34 53° 202° (SSW) 12:00:16 145.825 - 145.975 CW/USB, Beacon 145.810 USB
TMSAT-1 29 Jul 03:56:17 04:00:28 23° 93° (E) 04:04:38 436.925 FM
AO-27 29 Jul 03:57:49 04:03:02 74° 103° (ESE) 04:08:11 436.795 MHz FM
Uribyol 2 29 Jul 03:58:05 04:03:17 77° 104° (ESE) 04:08:26 436.500 FM
Sapphire 29 Jul 04:14:09 04:17:33 17° 326° (NW) 04:20:58 437.095 MHz 1200 baud AX-25 AFSK
Gurwin Techsat 1B 29 Jul 04:20:01 04:25:12 50° 100° (E) 04:30:20 435.225 FM
Oscar 19 29 Jul 04:29:15 04:33:44 30° 295° (WNW) 04:38:12 437.125 CW, 437.150 USB
AO-7 29 Jul 04:45:13 04:51:05 21° 90° (E) 04:56:54 29.400 - 29.500 MHz
AO-Echo 29 Jul 04:45:38 04:50:23 40° 292° (WNW) 04:54:58 ?
PCSat 29 Jul 04:50:19 04:51:48 11° 334° (NNW) 04:53:17 145.825 MHz
Oscar 16 29 Jul 04:58:28 05:01:50 18° 301° (WNW) 05:05:12 437.025 USB, Beacon 2401.1428
OPAL 29 Jul 05:02:50 05:07:43 62° 256° (WSW) 05:12:39 ?
Uosat F 29 Jul 05:04:22 05:08:12 22° 93° (E) 05:12:00 435.120 FM
JAS-1B 29 Jul 05:15:56 05:25:20 63° 293° (WNW) 05:33:26 435.800 - 435.900 CW/SSB
ITAMSAT 1 29 Jul 05:18:49 05:22:56 24° 298° (WNW) 05:27:01 435.822 SSB
ISS 29 Jul 05:20:54 05:24:06 38° 18° (NNE) 05:27:17 145.800 FM
MaSat-1 29 Jul 05:22:59 05:24:38 11° 35° (NE) 05:26:16 437.345 MHz
KITSAT 1 29 Jul 05:31:25 05:35:14 14° 98° (E) 05:39:03 435.175 FM
TMSAT-1 29 Jul 05:35:33 05:40:40 50° 290° (WNW) 05:45:44 436.925 FM
AO-27 29 Jul 05:38:40 05:41:57 17° 301° (WNW) 05:45:14 436.795 MHz FM
Uribyol 2 29 Jul 05:39:00 05:42:08 17° 302° (WNW) 05:45:16 436.500 FM
STRAND 1 29 Jul 05:50:43 05:52:39 12° 55° (NE) 05:54:35 ?
Gurwin Techsat 1B 29 Jul 06:00:38 06:04:51 25° 298° (WNW) 06:09:04 435.225 FM
AO-7 29 Jul 06:36:31 06:44:55 89° 290° (WNW) 06:53:14 29.400 - 29.500 MHz
Uosat F 29 Jul 06:42:25 06:47:16 50° 290° (WNW) 06:52:04 435.120 FM
ISS 29 Jul 06:57:38 07:00:53 46° 217° (SW) 07:04:07 145.800 FM
MaSat-1 29 Jul 06:58:11 07:03:19 46° 55° (NE) 07:08:15 437.345 MHz
JAS-2 29 Jul 07:01:42 07:06:19 23° 89° (E) 07:10:35 435.800 - 435.900 CW/SSB, 435.910 FM
JAS-1B 29 Jul 07:07:56 07:13:49 19° 316° (NW) 07:19:21 435.800 - 435.900 CW/SSB
KITSAT 1 29 Jul 07:21:08 07:29:10 70° 118° (ESE) 07:37:13 435.175 FM
Hamsat 29 Jul 07:25:21 07:29:31 46° 99° (E) 07:33:40 145.90 MHz
STRAND 1 29 Jul 07:25:51 07:30:59 77° 74° (ENE) 07:36:09 ?
SO-67 29 Jul 07:49:36 07:50:40 11° 90° (E) 07:51:44 435.3500 MHz FM
Saudisat 1A 29 Jul 08:06:52 08:10:43 30° 116° (ESE) 08:14:36 436.775 MHz
PCSat 29 Jul 08:22:03 08:24:24 13° 29° (NNE) 08:26:44 145.825 MHz
AO-7 29 Jul 08:30:26 08:36:41 24° 311° (NW) 08:42:54 29.400 - 29.500 MHz
MaSat-1 29 Jul 08:35:58 08:40:27 28° 255° (WSW) 08:44:43 437.345 MHz
JAS-2 29 Jul 08:46:01 08:51:55 53° 291° (WNW) 08:57:12 435.800 - 435.900 CW/SSB, 435.910 FM
Hamsat 29 Jul 09:02:08 09:05:10 19° 296° (WNW) 09:08:13 145.90 MHz
STRAND 1 29 Jul 09:08:04 09:10:46 14° 271° (W) 09:13:29 ?
HO-68 29 Jul 09:09:47 09:12:38 13° 85° (E) 09:15:28 435.675 MHz FM
KITSAT 1 29 Jul 09:17:51 09:25:11 36° 321° (NW) 09:32:33 435.175 FM
SO-67 29 Jul 09:20:40 09:24:02 47° 286° (WNW) 09:27:23 435.3500 MHz FM
Sapphire 29 Jul 09:30:49 09:35:27 28° 44° (NE) 09:40:04 437.095 MHz 1200 baud AX-25 AFSK
Saudisat 1A 29 Jul 09:46:07 09:50:14 37° 314° (NW) 09:54:21 436.775 MHz
PCSat 29 Jul 10:03:58 10:09:13 47° 51° (NE) 10:14:27 145.825 MHz
Oscar 11 29 Jul 10:27:01 10:29:41 16° 91° (E) 10:32:20 145.825 FM, Beacon 2401.500 USB
HO-68 29 Jul 10:54:25 11:01:35 71° 104° (ESE) 11:08:42 435.675 MHz FM
Sapphire 29 Jul 11:13:54 11:19:14 57° 244° (WSW) 11:24:31 437.095 MHz 1200 baud AX-25 AFSK
UKube-1 29 Jul 11:17:00 11:21:23 86° 285° (WNW) 11:25:43 145.840 MHz, 145.915 MHz
KITSAT 1 29 Jul 11:18:19 11:23:23 17° 349° (N) 11:28:28 435.175 FM
PCSat 29 Jul 11:47:48 11:52:25 29° 250° (WSW) 11:57:00 145.825 MHz
Oscar 11 29 Jul 12:01:57 12:06:11 53° 288° (WNW) 12:10:24 145.825 FM, Beacon 2401.500 USB
FUNcube-1 29 Jul 12:24:14 12:28:25 80° 285° (WNW) 12:32:37 145.950 - 145.970 MHz USB
JAS-1B 29 Jul 12:28:26 12:31:21 12° 35° (NE) 12:34:18 435.800 - 435.900 CW/SSB
Oscar 19 29 Jul 12:34:32 12:35:12 10° 54° (NE) 12:35:52 437.125 CW, 437.150 USB
HO-68 29 Jul 12:43:00 12:48:41 27° 304° (NW) 12:54:22 435.675 MHz FM
SO-50 29 Jul 12:53:25 12:57:09 27° 114° (ESE) 13:00:58 436.795 FM
UKube-1 29 Jul 12:56:00 12:56:52 11° 303° (WNW) 12:57:44 145.840 MHz, 145.915 MHz
Oscar 16 29 Jul 12:59:49 13:03:14 18° 60° (ENE) 13:06:40 437.025 USB, Beacon 2401.1428
RS-15 29 Jul 13:02:23 13:11:00 27° 103° (ESE) 13:19:26 29.354 - 29.394 USB, Beacon 29.352 USB
KITSAT 1 29 Jul 13:16:47 13:22:28 20° 20° (NNE) 13:28:08 435.175 FM
ITAMSAT 1 29 Jul 13:22:28 13:25:08 14° 57° (ENE) 13:27:48 435.822 SSB
Uribyol 2 29 Jul 13:40:26 13:44:14 21° 61° (ENE) 13:48:01 436.500 FM
AO-27 29 Jul 13:40:28 13:44:13 20° 60° (ENE) 13:47:59 436.795 MHz FM
AO-7 29 Jul 14:02:50 14:03:05 10° 33° (NNE) 14:03:20 29.400 - 29.500 MHz
Gurwin Techsat 1B 29 Jul 14:06:16 14:09:12 15° 57° (ENE) 14:12:09 435.225 FM
Oscar 19 29 Jul 14:08:31 14:13:34 66° 72° (ENE) 14:18:40 437.125 CW, 437.150 USB
JAS-1B 29 Jul 14:10:46 14:18:59 39° 58° (ENE) 14:27:46 435.800 - 435.900 CW/SSB
AO-Echo 29 Jul 14:21:25 14:26:25 44° 69° (ENE) 14:31:27 ?
SO-50 29 Jul 14:33:16 14:37:32 41° 313° (NW) 14:41:54 436.795 FM
Oscar 16 29 Jul 14:36:59 14:42:04 67° 258° (WSW) 14:47:12 437.025 USB, Beacon 2401.1428
UOSAT-12 29 Jul 14:51:33 14:55:34 31° 115° (ESE) 14:59:40 437.025 FM, 437.400 FM
Saudisat 1A 29 Jul 14:53:28 14:54:50 11° 27° (NNE) 14:56:12 436.775 MHz
ITAMSAT 1 29 Jul 14:58:39 15:03:53 89° 75° (ENE) 15:09:08 435.822 SSB
RS-15 29 Jul 15:10:51 15:22:00 86° 305° (NW) 15:33:00 29.354 - 29.394 USB, Beacon 29.352 USB
KITSAT 1 29 Jul 15:12:15 15:20:05 50° 46° (NE) 15:27:51 435.175 FM
AO-27 29 Jul 15:18:07 15:23:17 62° 258° (WSW) 15:28:28 436.795 MHz FM
Uribyol 2 29 Jul 15:18:09 15:23:17 59° 259° (W) 15:28:25 436.500 FM
TMSAT-1 29 Jul 15:18:48 15:23:47 44° 68° (ENE) 15:28:48 436.925 FM
Gurwin Techsat 1B 29 Jul 15:43:08 15:48:27 87° 256° (WSW) 15:53:48 435.225 FM
Oscar 19 29 Jul 15:50:13 15:53:24 17° 270° (W) 15:56:36 437.125 CW, 437.150 USB
